DELTA 1 DEB, 42084

Orbit data source: Space-Track

DELTA 1 DEB, 42084 is space debris in SSO originally from a launch on Sun, 15 Dec 1968 UTC launched from the Air Force Western Test Range (AFWTR). Debris objects in space refer to the collection of defunct objects orbiting the Earth. Examples of debris include non-operational satellites, rocket bodies, and fragments generated from explosions, collisions, or faulty payload assembly.

Loading next visibility...
Identifier
42084, 1968-114L
Orbit
SSO
Last TLE update
2 weeks ago
Origin
Manufacturer
Aerojet
Mission
Spacecraft
Bus & Motor
Unknown
Mass
Unknown
Launch date (UTC)
1968-12-15 (57 years ago)
Launch vehicle
Unknown
Launch site
Air Force Western Test Range (AFWTR)
Object type
Payload
Rocket body
Debris
Shape & HBR
Unknown
Radar Cross Section
Small (<0.1 m²)

Expand to show TLE details & history

TLE from 2 weeks ago
0 DELTA 1 DEB
1 42084U 68114L   25171.86155924  .00000599  00000-0  32307-2 0  9994
2 42084 101.7306 219.4326 0344369 170.7318 190.0328 12.53729015254482
Epoch: 2025-06-20T20:40Z
TLE epoch observation values (Epoch: 2025-06-20T20:40:38.718Z)
Latitude
0.00001°
Longitude
-0.03754°
Altitude
1,717.248 km
Speed
6.898 km/s
True Right ascension
14h 37m 43s
True Declination
0° 00' 00"
Sunlit
Object was in daylight at epoch
Visualization orbit readout
Latitude
5.02411°
Longitude
-168.52416°
Altitude
1,204.125 km
Speed
7.366 km/s
Apparent Right ascension
05h 46m 13s
Apparent Declination
-22° 20' 35"
Sunlit
Object is in daylight
Visualization observer readout
Local Sidereal Time
22:01:42
Azimuth
92.083° ESE
Elevation
-33.803°
Doppler factor
1
Orbital elements
Apogee altitude
1,715.928 km
Perigee altitude
1,177.017 km
Semi-major axis
7,824.61 km
Eccentricity
0.03444
Inclination
101.7306°
RAAN
219.4326°
Arg. of periapsis
170.7318°
True anomaly
Unknown
Mean anomaly
190.0328°
Eccentric anomaly
Unknown
Mean motion
3.13581 °/min
Orbital period
114.8 mins
BSTAR
0.0032307
Loading maneuver chart data...
Loading SW <> Apogee altitude chart data...
Loading historical data...
Loading historical data...
Loading historical data...
Loading historical data...
Loading historical data...
Loading historical data...
Loading historical data...

DELTA 1 DEB Visibility forecast

Observer location: undefined°, undefined°

Span
Click to sort rows by Start time (UTC) header in descending order
Start Az.
Max El. time (UTC)
Max El. Az.
Max El.
End time (UTC)
End Az.
13 mins2025-07-01 15:51:16.403Z24.469° NE2025-07-01 15:57:16.403Z86.008° E41.528°2025-07-01 16:04:16.403Z185.19° SSW
8 mins2025-07-01 17:46:16.403Z342.91° N2025-07-01 17:50:16.403Z300.089° NW22.052°2025-07-01 17:54:16.403Z259.962° W
9 mins2025-07-02 01:00:16.403Z88.333° E2025-07-02 01:04:16.403Z57.573° ENE19.083°2025-07-02 01:09:16.403Z16.016° NNE
15 mins2025-07-02 02:49:16.403Z157.346° SSE2025-07-02 02:56:16.403Z111.253° ESE44.843°2025-07-02 03:04:16.403Z343.911° N
10 mins2025-07-02 04:45:16.403Z230.87° WSW2025-07-02 04:50:16.403Z269.742° W19.017°2025-07-02 04:55:16.403Z308.031° NW
|